Tracking 30160 objects as of 13-Feb-2025
HD Live streaming from Space Station
objects crossing your sky now

STARLINK-4381

Track STARLINK-4381 now!
10-day predictions
STARLINK-4381 is classified as:


NORAD ID: 53222
Int'l Code: 2022-084AK
Perigee: 522.7 km
Apogee: 524.3 km
Inclination: 97.7 °
Period: 95.0 minutes
Semi major axis: 6894 km
RCS: Unknown
Launch date: July 22, 2022
Source: United States (US)
Launch site: AIR FORCE WESTERN TEST RANGE (AFWTR)
Your satellite tracking list
Your tracking list is empty




NASA's NSSDC Master Catalog

Two Line Element Set (TLE):
1 53222U 22084AK  25044.58336806  .00080418  00000-0  40879-2 0  9995
2 53222  97.6550 108.1412 0001164 102.6694 133.5890 15.16512705  5811
Source of the keplerian elements: AFSPC